This is the latest recevied weather packets stored in our database for station/object EA1AHA-13. If no packets are shown the sender has not sent any weather packets the latest 10 day(s).
| Time | Temp. | Humidity | Pressure | Rain* | Wind** | Luminosity | Snow |
|---|---|---|---|---|---|---|---|
| 1777617966 | 13.89° C | 92% | 1017.4 hPa | 0 mm | - | - | - |
| 1777617389 | 13.89° C | 93% | 1017.6 hPa | 0 mm | - | - | - |
| 1777616766 | 13.33° C | 94% | 1017.5 hPa | 0 mm | - | - | - |
| 1777616191 | 12.78° C | 95% | 1017.7 hPa | 0 mm | - | - | - |
| 1777615566 | 12.78° C | 95% | 1017.5 hPa | 0 mm | - | - | - |
| 1777614990 | 12.78° C | 96% | 1017.6 hPa | 0 mm | - | - | - |
| 1777614414 | 12.78° C | 95% | 1017.8 hPa | 0 mm | - | - | - |
| 1777613790 | 12.78° C | 95% | 1017.6 hPa | 0 mm | - | - | - |
| 1777613165 | 12.78° C | 95% | 1017.5 hPa | 0 mm | - | - | - |
| 1777612590 | 12.78° C | 95% | 1017.3 hPa | 0 mm | - | - | - |
| 1777611966 | 12.78° C | 95% | 1017.3 hPa | 0 mm | - | - | - |
| 1777611390 | 13.33° C | 94% | 1017.5 hPa | 0 mm | - | - | - |
| 1777610766 | 13.33° C | 94% | 1017.6 hPa | 0 mm | - | - | - |
| 1777610190 | 13.33° C | 94% | 1017.5 hPa | 0 mm | - | - | - |
| 1777609566 | 13.33° C | 93% | 1017.6 hPa | 0 mm | - | - | - |
| 1777608990 | 13.89° C | 93% | 1017.5 hPa | 0 mm | - | - | - |
| 1777608366 | 13.89° C | 93% | 1017.6 hPa | 0 mm | - | - | - |
| 1777607790 | 13.89° C | 93% | 1017.8 hPa | 0 mm | - | - | - |
| 1777607213 | 14.44° C | 92% | 1017.7 hPa | 0 mm | - | - | - |
| 1777606591 | 14.44° C | 91% | 1017.5 hPa | 0 mm | - | - | - |
| 1777605966 | 15° C | 91% | 1017.3 hPa | 0 mm | - | - | - |
| 1777605390 | 15° C | 91% | 1017.5 hPa | 0 mm | - | - | - |
| 1777604766 | 15° C | 91% | 1017.4 hPa | 0 mm | - | - | - |
| 1777604190 | 15° C | 90% | 1017.5 hPa | 0 mm | - | - | - |
| 1777603566 | 15° C | 90% | 1017.5 hPa | 0 mm | - | - | - |
* Rain latest hour (hover to see other rain measurements)
** Current wind speed in m/s (hover to see current wind gust speed)